Regional Weather Roundup
Issued by NWS Sioux Falls, SD

Home | Current Version | Previous Version | Text Only | Print | Product List | Glossary On
Versions: 1 2 3 4 5 6 7 8 9 10 11 12 13 14 15 16 17 18 19 20 21 22 23 24 25 26 27 28 29 30 31 32 33 34 35 36 37 38 39 40 41 42 43 44 45 46 47 48 49 50
000
ASUS43 KFSD 221102
RWRFSD

WEATHER ROUNDUP FOR SE SOUTH DAKOTA/SW MINNESOTA/NW IOWA
NATIONAL WEATHER SERVICE SIOUX FALLS SD
500 AM CST SUN JAN 22 2017

NOTE: "FAIR" INDICATES FEW OR NO CLOUDS BELOW 12,000 FEET WITH NO
SIGNIFICANT WEATHER AND OR OBSTRUCTIONS TO VISIBILITY.


SDZ038>040-050-052>070-221200-
SOUTHEAST SOUTH DAKOTA

CITY           SKY/WX    TMP DP  RH WIND       PRES   REMARKS
BROOKINGS      CLOUDY    32  31  96 NW9       29.64R FOG     WCI  24
CHAMBERLAIN    CLEAR     22  22  97 W7        29.73R WCI  14
HURON          CLOUDY    27  27 100 NW12      29.70R FOG     WCI  17
MADISON        CLOUDY    32  32 100 NW12        N/A  WCI  23
MITCHELL       MOCLDY    30  28  92 W10       29.71R FOG     WCI  21
SIOUX FALLS    CLOUDY    33  31  92 NW9       29.65R WCI  25
WINNER         FAIR      24  21  88 NW6       29.73R WCI  17
YANKTON        CLOUDY    30  27  86 NW13      29.68R WCI  20
$$

MNZ071-072-080-081-089-090-097-098-221200-
SOUTHWEST MINNESOTA

CITY           SKY/WX    TMP DP  RH WIND       PRES   REMARKS
FAIRMONT       CLOUDY    34  33  96 NW9       29.61S FOG     WCI  27
JACKSON        FOG       32  32 100 NW9       29.61R VSB 3/4 WCI  24
LUVERNE        CLOUDY    32  30  93 NW9       29.63S WCI  24
MARSHALL       CLOUDY    33  33 100 NW9       29.64R FOG     WCI  25
MONTEVIDEO     FOG       34  34 100 N7        29.65S VSB 1/2 WCI  28
PIPESTONE      CLOUDY    34  32  93 N10       29.62R FOG     WCI  26
REDWOOD FALLS  CLOUDY    34  33  96 NW8       29.62S FOG     WCI  27
TRACY          FOG       34  34 100 NW8       29.63R VSB 1/2 WCI  27
WINDOM         FOG       34  34 100 NW8       29.61S VSB 1/2 WCI  27
WORTHINGTON    CLOUDY    33  32  96 NW9       29.62R WCI  25
$$

IAZ001>003-012>014-020>022-031-032-NEZ013-014-SDZ071-221200-
NORTHWEST IOWA

CITY           SKY/WX    TMP DP  RH WIND       PRES   REMARKS
CHEROKEE       CLOUDY    32  32  99 N3        29.63S
DENISON        CLOUDY    32  30  93 N12       29.63R WCI  23
ESTHERVILLE    CLOUDY    32  32 100 NW10      29.60R FOG     WCI  24
LE MARS        CLOUDY    32  30  93 NW10      29.66R WCI  24
ORANGE CITY    CLOUDY    32  30  93 NW12      29.63S WCI  23
SHELDON        CLOUDY    32  32 100 NW12      29.62R WCI  23
SIOUX CITY     CLOUDY    34  30  85 NW10      29.67R WCI  26
SPENCER          N/A    N/A N/A N/A MISG      29.62R
STORM LAKE     CLOUDY    32  30  93 NW12      29.61S WCI  23
$$

ABBREVIATIONS USED IN REMARKS
   TC - TEMPERATURE IN CELSIUS
  WCI - WIND CHILL INDEX
   HX - HEAT INDEX
  VSB - VISIBILITY





USA.gov is the U.S. government's official web portal to all federal, state and local government web resources and services.